TIANLIAN 2-02

Last updated on Wed Mar 11 2026 00:02:56 GMT+0000 (Coordinated Universal Time)

1 50005U 21124A 26069.31502899 -.00000013 00000+0 00000+0 0 9993 2 50005 0.5452 88.0744 0004191 212.6163 151.6462 1.00272131 15632
UTC large
Height (km)
Speed (km/s)
/
Latitude / Longitude
Inclination (degrees)
Orbital Period (minutes)
Azimuth
Elevation
Range (km)
Doppler Factor

Next 0 passes for location: London (51.5072 / 0.1276)

Sorry there are no passes over London.